029  
ASCA42 TJSJ 191010  
RWRPR  
PUERTO RICO/U.S. VIRGIN ISLANDS HOURLY WEATHER ROUNDUP  
NATIONAL WEATHER SERVICE SAN JUAN PR  
600 AM AST SUN MAY 19 2019  
 
PRZ001>002-007>008-010-191100-  
PUERTO RICO  
 
CITY SKY/WX TMP DP RH WIND PRES REMARKS
 
SAN JUAN LMM PTCLDY 79 72 78 CALM 29.98R  
CEIBA MOCLDY 81 73 78 E7 29.99R  

 
 
VIZ001>002-191100-  
U.S. VIRGIN ISLANDS  
 
CITY SKY/WX TMP DP RH WIND PRES REMARKS
 
CHARLOTTE AMA PTCLDY 79 72 78 E7 29.98R  
CHRISTIANSTED PTCLDY 77 73 88 NE7 29.98S  

 
 
HOURLY WEATHER ROUNDUP FOR THE NEWS MEDIA  
 
CITY SKY/WX TMP DP RH WIND PRES REMARKS
 
ORLANDO FAIR 68 65 90 CALM 30.03R  
NEW YORK MOCLDY 58 55 90 S8 30.10R  
NEWARK CLOUDY 60 53 77 S7 30.08R  
CHICAGO LGT RAIN 52 50 93 E3 29.63S FOG  
HARTFORD FAIR 51 50 96 S6 30.13R  
BOSTON MOCLDY 55 46 71 S8 30.10S  
DALLAS PTCLDY 75 72 90 S6 29.74S FOG  
PHILADELPHIA MOCLDY 61 55 81 E5 30.07R  
LOS ANGELES LGT RAIN 53 47 79 W7 29.92S  
WASHINGTON DC MOCLDY 63 60 90 CALM 30.03R  
 
CLICK HERE TO GO TO PREVIOUS BULLETINS.

The Nexlab PR Page Main Text Page